Dewpoint
-0 -1 -1 -1 -2 -3 -0 1 2 1 -0 1 1 1 -0 -1 -1 0 0 0 -0 -1 -1 1 1 3 3 4 4 4 4 3 3 -1 -6 -3 -3 -7 -0 9 9 9 9 9
-0 -0 -1 -1 -1 0 0 2 3 1 1 1 1 2 -0 -1 0 1 1 0 -0 0 1 2 2 1 1 2 2 3 4 4 3 1 -1 -2 -3 -4 -8 3 9 9 9 9
1 -0 -2 -1 1 3 2 2 2 3 2 1 0 0 -0 -3 1 1 1 1 0 1 2 2 0 0 -1 -1 -0 1 2 4 4 1 -0 -0 -1 -2 -2 -1 6 8 8 9
1 -1 -0 1 3 1 3 1 2 3 4 3 0 3 2 -0 -0 1 1 0 0 1 2 2 1 -2 -3 -5 -3 -1 1 3 3 3 1 0 -1 -1 1 4 6 8 8 8
2 1 2 4 2 1 2 2 3 3 4 4 2 1 2 3 3 2 1 0 1 1 -1 -2 -0 -0 -3 -2 -1 -1 0 2 3 3 2 1 0 -1 -1 4 5 8 8 9
2 1 1 2 1 1 1 3 3 3 5 3 2 2 3 2 2 2 1 1 1 -2 -2 0 -1 -3 -2 -2 -1 0 1 3 3 3 4 1 0 -0 -1 2 5 6 8 8
3 3 1 1 3 2 3 0 2 2 3 3 3 2 3 1 2 2 1 1 1 -2 0 -3 -5 -4 -4 -3 -1 1 2 3 3 2 2 1 1 1 1 0 4 7 7 7
2 1 2 1 3 3 3 2 4 4 4 3 3 4 3 2 2 2 1 1 0 -0 -0 -5 -5 -6 -2 -2 0 1 2 3 3 3 2 -0 0 3 3 4 4 6 8 7
3 3 1 1 1 2 3 4 2 4 3 5 2 2 2 3 3 3 2 2 2 1 -1 -6 -7 -10 -1 -1 -1 1 2 3 4 3 3 3 3 3 4 5 5 6 7 7
2 3 1 1 1 1 3 2 3 3 4 5 2 2 4 3 3 2 2 2 2 2 -1 -6 -6 -12 -12 -10 -2 -1 0 2 3 4 4 5 4 6 6 7 6 6 6 6
1 2 0 1 3 4 4 4 4 2 3 4 5 2 1 2 2 2 2 1 1 2 -4 -6 -6 -12 -13 -12 -11 -9 -3 -0 1 3 4 5 5 5 5 6 6 6 6 6
1 2 1 2 -1 0 2 2 1 1 1 2 2 2 -1 3 2 1 0 -0 1 -0 -3 -5 -5 -9 -15 -14 -13 -12 -11 -5 -1 1 3 4 4 4 5 4 4 4 5 5
-0 0 1 -3 -1 -1 -1 -1 -1 -1 0 1 1 0 0 1 1 0 0 1 1 -1 -1 -4 -5 -6 -15 -17 -17 -16 -15 -15 -16 -15 -8 -3 2 4 2 -1 -3 1 0 -3
-0 1 -1 -2 -2 1 1 -1 -1 -1 1 0 1 -2 -7 -5 -3 -3 -3 -1 0 -0 -1 -3 -5 -6 -10 -18 -20 -19 -19 -19 -18 -19 -20 -20 -21 -21 -21 -20 -21 -22 -23 -23
0 2 0 1 1 0 1 1 0 1 -0 1 -2 -1 -3 -5 -5 -5 -5 -5 -3 0 -1 -2 -5 -6 -7 -16 -19 -20 -21 -21 -20 -20 -20 -21 -21 -21 -22 -23 -23 -24 -24 -24
0 1 0 0 -1 -1 -0 -1 -2 -2 -1 -0 -1 -1 -4 -5 -4 -5 -5 -4 -1 -1 -1 -2 -3 -5 -6 -10 -18 -21 -21 -21 -22 -22 -23 -24 -24 -24 -24 -23 -23 -22 -22 -21
-0 1 0 1 -1 -1 -1 -2 -3 -2 -2 -2 0 -3 -5 -5 -5 -5 -5 -5 -4 -2 -2 -2 -2 -4 -5 -7 -16 -19 -20 -20 -22 -22 -23 -24 -24 -24 -23 -23 -23 -23 -23 -22
-2 -1 -0 1 -0 -4 -7 -7 -7 -4 -4 -4 -3 -4 -5 -6 -6 -7 -8 -8 -6 -4 -3 -2 -2 -3 -4 -6 -11 -18 -19 -19 -20 -22 -22 -23 -24 -23 -22 -21 -20 -20 -20 -19
-3 -1 0 1 1 -2 -6 -6 -7 -8 -9 -6 -5 -5 -6 -6 -6 -8 -8 -5 -5 -5 -4 -2 -2 -2 -3 -6 -8 -17 -19 -19 -19 -20 -21 -22 -23 -23 -22 -22 -22 -22 -21 -21
-2 -2 -1 1 2 0 -11 -9 -7 -8 -11 -12 -7 -6 -7 -6 -6 -7 -9 -8 -8 -7 -4 -3 -2 -2 -3 -5 -8 -14 -19 -19 -19 -19 -20 -21 -22 -23 -22 -22 -21 -19 -18 -17
1 0 2 1 2 1 -3 -8 -7 -11 -15 -9 -9 -9 -8 -6 -8 -10 -7 -6 -6 -5 -6 -4 -2 -2 -2 -4 -7 -11 -17 -18 -18 -18 -18 -20 -22 -22 -22 -21 -19 -18 -17 -16
1 1 1 1 2 2 -4 -6 -10 -11 -12 -10 -10 -10 -9 -9 -9 -7 -6 -7 -7 -6 -5 -4 -2 -2 -2 -4 -5 -9 -16 -17 -17 -17 -18 -20 -21 -21 -21 -20 -19 -18 -17 -15
-2 -2 0 -0 -0 -4 -7 -7 -9 -9 -10 -11 -12 -12 -9 -7 -6 -7 -8 -8 -7 -7 -5 -4 -3 -3 -3 -4 -5 -8 -14 -16 -16 -17 -17 -19 -20 -21 -21 -19 -19 -18 -17 -15
-6 -5 -4 -5 -5 -4 -5 -6 -6 -7 -7 -8 -8 -8 -8 -8 -8 -7 -8 -7 -7 -7 -6 -5 -5 -4 -4 -5 -5 -7 -12 -15 -16 -16 -17 -19 -20 -21 -21 -20 -19 -17 -15 -14
-5 -6 -5 -5 -7 -7 -8 -8 -8 -8 -9 -8 -9 -8 -7 -7 -7 -7 -7 -7 -6 -7 -6 -5 -4 -4 -5 -4 -5 -6 -10 -13 -15 -16 -17 -18 -20 -20 -20 -19 -18 -16 -15 -13
-3 -2 -0 -1 -5 -7 -7 -7 -8 -8 -8 -7 -7 -7 -8 -7 -7 -7 -6 -6 -5 -5 -5 -4 -5 -3 -3 -4 -4 -6 -9 -12 -13 -15 -16 -18 -20 -20 -20 -19 -18 -15 -13 -10
Wind_Speed
7 8 3 2 3 2 3 1 5 6 1 7 6 14 20 27 13 7 8 11 16 22 25 27 23 22 22 22 23 21 23 23 18 22 25 28 28 29 33 33 30 30 25 23
6 3 1 0 1 1 3 3 5 6 7 9 9 17 16 7 7 6 7 13 20 21 19 19 25 26 26 27 30 30 25 23 23 21 23 25 28 31 30 34 32 32 29 26
5 3 3 2 3 3 2 1 2 5 7 4 9 6 2 2 9 3 8 13 19 13 18 20 20 21 22 23 24 30 31 27 23 20 21 21 23 26 26 30 31 33 32 27
3 2 1 3 2 3 3 1 2 6 8 3 4 4 5 2 6 2 11 18 14 14 15 17 23 29 31 32 33 29 25 27 26 20 20 18 24 28 25 28 26 30 25 27
3 2 2 3 1 2 5 4 3 2 1 4 3 3 7 2 7 8 10 12 9 11 15 20 24 27 29 35 31 27 24 21 21 25 21 23 22 25 28 22 26 25 23 20
3 2 2 2 3 3 5 4 3 1 1 2 5 4 6 4 6 4 5 9 9 12 15 18 20 22 28 25 26 22 16 12 13 15 20 23 25 24 23 24 25 26 22 20
4 3 3 3 2 3 7 6 3 4 2 4 3 2 9 8 7 6 10 13 11 14 16 17 21 21 25 25 24 18 12 10 13 11 13 14 19 20 22 25 22 23 25 21
2 6 5 4 4 3 2 4 3 3 2 5 2 5 6 4 6 10 12 14 14 16 14 17 19 20 22 21 20 15 11 11 10 5 5 9 14 17 18 20 20 23 16 15
3 4 2 4 3 4 2 0 2 1 3 3 4 7 6 3 7 10 15 14 17 16 14 15 16 15 19 20 18 16 13 10 7 4 5 6 10 15 13 15 19 19 10 9
2 4 4 2 1 5 3 1 2 2 2 5 6 6 5 5 9 5 9 15 16 16 14 13 14 14 13 14 16 14 13 12 8 4 3 4 4 3 4 7 12 9 10 12
1 3 6 3 5 7 2 2 3 2 3 3 4 7 6 6 7 8 8 13 14 15 13 11 11 12 12 12 12 14 15 13 9 6 5 3 4 7 7 9 9 10 10 11
4 3 4 9 3 5 5 6 5 4 3 1 3 7 5 7 7 11 15 14 13 13 11 10 9 10 11 12 11 9 10 10 9 6 3 3 3 5 7 8 10 12 12 11
1 2 4 7 4 4 2 4 4 4 2 6 3 7 2 2 6 14 17 17 14 15 13 11 10 10 10 9 9 9 8 6 7 7 7 4 0 3 4 3 5 8 10 9
2 3 7 6 4 2 4 5 5 6 4 4 12 13 19 10 6 11 19 24 23 18 14 13 12 10 10 8 6 7 6 5 4 4 5 4 3 2 2 4 4 5 6 6
4 5 4 8 14 13 17 18 14 15 13 10 4 10 18 9 13 26 28 25 20 22 18 15 13 11 11 10 7 6 6 6 5 5 4 4 4 4 4 4 5 5 7 7
3 4 4 7 12 9 15 16 17 19 21 22 24 28 26 34 26 21 16 11 15 22 21 17 15 15 13 11 9 7 6 5 6 6 7 7 8 7 7 7 7 7 7 8
5 3 4 6 7 12 9 8 13 7 6 21 16 24 11 11 12 16 18 18 19 20 21 20 19 17 15 13 10 8 7 6 6 7 7 6 6 6 6 6 6 7 8 8
3 4 2 5 7 3 6 3 6 13 11 17 10 10 9 11 17 23 22 24 24 22 21 23 21 19 17 15 12 10 8 8 8 8 8 8 8 9 9 9 9 9 9 9
9 4 2 3 2 11 8 1 5 6 8 15 20 18 23 25 15 25 12 9 13 16 22 20 21 19 17 16 13 13 11 10 9 8 8 9 10 10 10 11 10 10 10 10
5 4 4 1 3 6 3 1 2 2 6 7 18 14 12 8 3 6 7 13 20 16 17 19 19 20 19 17 16 15 14 12 11 10 9 10 10 11 11 10 10 10 11 11
3 4 12 11 6 10 10 8 3 1 6 8 16 18 17 7 16 9 18 20 21 19 16 16 18 21 19 18 18 17 15 14 11 10 10 10 11 11 11 10 10 11 10 11
8 8 5 7 7 11 12 6 7 6 6 8 13 16 19 21 20 21 23 23 19 19 16 17 19 21 21 21 20 18 17 13 13 11 11 11 11 11 11 11 11 11 11 11
3 8 6 13 10 8 24 17 18 19 17 13 16 20 19 21 24 25 27 22 21 19 16 18 22 22 23 23 22 20 15 16 14 12 11 12 11 11 11 12 12 12 12 13
4 14 4 2 8 24 29 32 34 34 37 37 34 32 28 28 30 30 25 24 22 19 19 17 21 24 25 25 24 20 17 17 15 13 13 13 12 12 11 11 13 13 13 15
5 2 4 11 29 26 43 41 44 37 30 28 31 29 30 32 30 28 26 25 26 23 21 22 24 25 25 25 25 23 21 19 16 15 15 14 13 12 12 12 13 13 13 14
8 15 12 17 45 21 35 35 33 24 19 25 29 31 27 27 30 26 27 27 24 26 28 27 27 27 25 25 26 25 23 20 18 17 16 14 13 11 12 13 13 12 14 15
Wind_Direction
31 63 87 63 61 126 134 265 283 268 46 358 279 283 287 290 286 127 39 360 336 323 315 308 310 305 301 296 292 286 278 276 275 274 262 256 260 259 241 241 235 228 240 236
32 81 108 345 246 266 245 272 292 298 358 334 293 291 288 291 126 109 31 349 336 326 328 327 331 329 319 312 300 295 279 275 275 271 270 256 257 262 254 241 240 233 229 232
123 169 163 273 311 283 315 203 334 252 305 282 342 300 217 217 137 101 12 339 336 337 330 330 339 343 338 329 308 293 289 277 275 272 262 256 255 252 253 245 245 240 234 231
89 182 287 315 282 25 298 175 287 310 337 295 74 294 294 252 254 288 332 335 338 333 327 324 321 330 329 321 319 305 287 278 274 264 255 250 250 248 246 238 244 240 234 233
260 173 252 277 28 27 243 349 297 278 352 327 321 62 272 318 269 273 305 321 311 309 318 325 324 323 323 322 321 314 302 282 278 256 246 245 244 250 243 249 243 228 213 223
240 157 165 243 273 224 270 344 354 107 53 328 238 135 279 214 213 280 269 311 298 308 325 326 317 323 330 333 336 327 316 300 291 270 246 242 239 242 252 242 244 234 223 220
329 223 186 202 7 334 30 40 355 360 354 231 205 47 250 251 230 223 269 291 287 311 323 321 320 326 338 346 347 344 336 327 309 280 245 250 248 251 250 242 240 233 227 233
92 326 190 174 166 188 256 133 136 223 307 283 212 238 254 237 240 246 260 276 288 308 316 316 325 337 350 355 357 3 340 336 341 315 249 248 253 247 244 248 230 230 216 216
8 287 97 190 149 137 196 343 212 120 255 290 253 284 299 295 268 246 258 268 281 300 295 317 334 347 10 10 8 11 8 359 338 336 292 286 246 235 234 236 232 236 224 238
296 315 252 149 158 259 182 265 37 4 7 303 289 283 241 284 279 248 250 259 275 286 288 311 332 346 348 356 2 12 11 16 14 3 254 193 209 195 218 237 231 246 248 257
273 121 295 105 197 181 130 274 230 182 164 198 304 272 221 223 239 261 252 265 272 266 281 302 328 344 347 354 350 358 15 14 11 30 84 129 191 197 205 235 245 255 261 268
215 173 258 228 269 155 167 192 165 127 283 269 169 271 256 223 230 238 258 257 262 251 284 291 313 329 338 341 338 349 353 6 22 27 38 111 182 205 229 246 256 259 258 264
95 279 328 346 355 353 183 222 193 122 92 212 174 261 271 251 252 245 253 267 251 244 262 276 289 308 323 326 321 328 343 360 10 27 45 51 186 210 226 251 263 268 262 274
107 240 200 209 214 93 238 208 200 176 170 208 230 277 267 301 281 284 284 272 254 247 259 266 270 282 303 309 308 313 327 337 352 14 18 26 29 13 348 348 336 321 318 308
150 246 233 257 266 267 264 255 235 222 222 211 221 238 267 271 290 295 299 303 258 238 247 262 261 266 277 287 289 292 302 318 330 343 347 346 345 340 326 310 300 299 299 300
198 272 312 279 262 263 266 255 243 238 237 241 254 272 272 275 276 284 282 308 254 240 247 261 264 263 266 272 272 276 279 284 297 308 317 326 327 323 317 314 312 311 307 304
179 199 360 270 320 314 291 233 213 203 222 220 229 241 257 272 269 272 288 285 271 257 256 262 265 266 265 264 262 266 263 263 269 278 286 293 299 302 299 294 292 295 299 304
201 140 163 279 334 295 256 227 198 207 230 218 244 251 229 249 271 288 294 290 278 268 261 261 261 262 256 256 253 256 258 263 269 278 291 307 318 320 319 315 311 312 310 308
195 142 291 263 258 292 295 227 177 194 276 210 222 246 250 263 281 287 269 314 316 276 263 265 264 265 256 255 252 251 250 253 260 273 286 301 313 316 314 312 310 311 312 310
98 127 169 315 241 257 257 257 165 109 290 223 202 231 227 165 257 253 273 304 313 302 270 267 257 248 253 249 243 243 245 249 256 269 282 293 303 307 307 308 310 312 314 315
130 197 217 232 267 282 253 228 160 331 248 197 209 224 206 187 218 272 301 301 303 302 285 271 252 253 263 251 246 245 246 250 254 265 274 285 294 300 307 310 312 314 313 311
171 166 196 194 228 267 197 121 180 228 322 270 234 218 224 239 255 275 296 301 301 298 289 264 254 254 256 251 249 246 249 248 254 259 269 279 290 301 308 310 312 314 314 312
224 192 183 190 214 245 190 224 236 265 282 280 258 256 251 259 269 286 293 295 296 295 290 271 260 259 252 249 249 247 250 249 255 262 271 277 286 298 304 306 310 310 309 310
265 200 235 166 233 247 255 257 261 269 274 279 275 274 266 264 278 284 282 291 292 289 287 285 268 260 258 254 251 251 246 248 251 257 264 272 281 289 299 306 308 309 310 309
231 18 282 260 273 272 269 267 273 280 290 292 278 281 274 270 272 278 279 286 291 283 286 280 273 269 266 258 254 250 249 250 249 252 257 265 273 286 297 300 302 302 304 305
218 249 251 255 267 260 277 286 295 277 273 292 292 289 285 272 270 273 277 286 285 281 284 278 272 271 269 258 251 247 245 246 245 249 255 263 272 283 291 295 292 292 294 292
Height
1541 1552 1562 1553 1550 1550 1552 1553 1553 1543 1538 1537 1532 1526 1515 1510 1512 1512 1510 1508 1507 1505 1504 1501 1497 1495 1491 1489 1486 1484 1481 1481 1479 1479 1478 1479 1479 1482 1484 1486 1488 1491 1495 1496
1549 1557 1551 1550 1549 1549 1550 1551 1551 1540 1537 1538 1530 1520 1512 1507 1508 1508 1507 1506 1505 1503 1502 1499 1495 1491 1487 1483 1480 1477 1476 1475 1473 1472 1472 1472 1473 1475 1477 1480 1483 1484 1487 1491
1552 1551 1550 1549 1548 1548 1546 1549 1550 1553 1541 1534 1530 1522 1509 1506 1507 1506 1506 1505 1502 1501 1499 1494 1491 1487 1482 1477 1474 1471 1469 1467 1467 1467 1466 1468 1468 1469 1471 1473 1476 1479 1482 1485
1550 1550 1550 1549 1549 1546 1549 1545 1545 1546 1544 1559 1537 1544 1517 1507 1505 1504 1502 1500 1499 1498 1495 1493 1489 1484 1479 1473 1467 1461 1458 1458 1459 1461 1460 1461 1462 1463 1466 1469 1472 1476 1477 1480
1552 1550 1551 1550 1547 1546 1547 1544 1545 1545 1549 1545 1538 1557 1518 1510 1506 1501 1499 1498 1496 1494 1493 1490 1486 1481 1476 1469 1462 1456 1453 1451 1452 1452 1454 1456 1456 1459 1462 1465 1469 1471 1472 1475
1549 1548 1548 1548 1547 1545 1542 1543 1542 1543 1546 1560 1538 1545 1523 1513 1502 1500 1497 1496 1494 1492 1489 1487 1483 1480 1475 1468 1460 1454 1450 1449 1448 1447 1449 1450 1452 1456 1459 1461 1465 1468 1470 1470
1551 1547 1546 1546 1545 1544 1547 1558 1570 1563 1567 1551 1533 1546 1513 1497 1495 1496 1493 1492 1492 1489 1488 1486 1482 1479 1474 1467 1460 1454 1450 1448 1447 1444 1447 1448 1450 1453 1456 1457 1462 1465 1463 1466
1565 1559 1545 1544 1545 1549 1547 1554 1562 1576 1564 1552 1530 1537 1505 1490 1490 1491 1491 1490 1489 1487 1487 1484 1482 1478 1473 1466 1460 1455 1452 1448 1446 1445 1446 1446 1448 1451 1453 1455 1458 1460 1452 1462
1559 1550 1540 1541 1540 1544 1544 1553 1545 1560 1549 1541 1542 1513 1493 1491 1489 1490 1488 1488 1486 1485 1484 1482 1480 1477 1472 1467 1462 1457 1452 1449 1447 1445 1445 1447 1449 1450 1452 1454 1457 1459 1459 1461
1551 1560 1541 1540 1542 1542 1544 1545 1555 1556 1559 1554 1539 1524 1511 1498 1488 1485 1485 1484 1484 1483 1482 1481 1478 1475 1472 1468 1463 1459 1455 1451 1449 1447 1447 1447 1448 1450 1451 1454 1455 1457 1458 1459
1548 1554 1550 1541 1543 1543 1547 1548 1546 1547 1548 1557 1552 1526 1491 1489 1483 1481 1481 1481 1480 1479 1478 1477 1476 1474 1470 1467 1464 1461 1458 1455 1452 1449 1448 1448 1448 1450 1451 1453 1454 1455 1455 1455
1547 1552 1561 1542 1532 1531 1534 1537 1541 1560 1546 1548 1551 1524 1480 1480 1479 1478 1477 1476 1475 1475 1475 1474 1473 1471 1469 1465 1462 1461 1459 1457 1453 1452 1450 1449 1450 1450 1450 1451 1453 1453 1452 1451
1547 1553 1566 1544 1539 1533 1533 1532 1532 1540 1547 1550 1554 1514 1479 1480 1480 1477 1476 1475 1473 1472 1471 1471 1470 1468 1467 1466 1463 1461 1460 1458 1456 1454 1452 1452 1451 1450 1451 1450 1451 1450 1449 1448
1545 1550 1549 1555 1533 1534 1534 1528 1529 1535 1554 1542 1523 1499 1478 1480 1480 1477 1473 1470 1469 1469 1468 1468 1467 1466 1465 1464 1463 1461 1460 1458 1457 1455 1454 1453 1452 1451 1450 1449 1449 1448 1447 1446
1545 1550 1545 1538 1530 1529 1525 1523 1524 1528 1522 1527 1495 1499 1475 1480 1477 1472 1468 1463 1462 1464 1464 1463 1464 1463 1462 1461 1460 1460 1459 1458 1457 1456 1455 1453 1451 1450 1449 1449 1448 1447 1446 1444
1544 1546 1540 1535 1521 1523 1518 1509 1508 1508 1505 1502 1494 1487 1471 1468 1469 1466 1463 1460 1459 1459 1459 1459 1459 1459 1459 1458 1458 1458 1458 1457 1456 1455 1454 1453 1451 1450 1448 1447 1446 1445 1444 1443
1542 1545 1547 1538 1525 1520 1509 1488 1489 1492 1488 1484 1493 1461 1462 1461 1461 1460 1458 1457 1455 1454 1454 1453 1453 1454 1454 1455 1456 1456 1456 1456 1456 1455 1454 1453 1451 1450 1448 1447 1446 1444 1443 1442
1536 1540 1545 1542 1532 1524 1477 1472 1473 1476 1469 1470 1466 1459 1457 1457 1456 1455 1453 1450 1448 1448 1448 1447 1448 1448 1450 1451 1451 1452 1453 1454 1453 1453 1452 1451 1450 1448 1447 1445 1444 1443 1441 1440
1532 1539 1544 1545 1541 1505 1470 1470 1471 1471 1461 1451 1453 1451 1451 1453 1453 1448 1447 1446 1444 1442 1442 1442 1443 1445 1446 1447 1447 1447 1448 1448 1448 1449 1448 1448 1447 1446 1445 1444 1443 1441 1440 1438
1530 1534 1543 1543 1537 1514 1471 1467 1468 1468 1472 1441 1443 1442 1445 1450 1458 1447 1444 1443 1442 1440 1438 1438 1438 1440 1440 1441 1442 1442 1443 1443 1444 1445 1445 1445 1444 1443 1442 1440 1439 1437 1436 1435
1535 1532 1534 1536 1539 1507 1470 1467 1469 1474 1458 1438 1439 1439 1441 1444 1439 1439 1440 1439 1437 1436 1434 1433 1433 1434 1436 1437 1438 1438 1439 1439 1441 1441 1441 1441 1440 1439 1439 1437 1436 1434 1432 1431
1523 1531 1531 1528 1530 1515 1459 1467 1470 1449 1442 1442 1441 1438 1438 1438 1438 1436 1435 1433 1432 1431 1430 1428 1428 1429 1431 1432 1432 1433 1434 1436 1437 1437 1437 1437 1437 1436 1435 1433 1432 1430 1429 1427
1507 1493 1502 1501 1480 1454 1452 1446 1443 1442 1441 1440 1439 1439 1436 1435 1433 1433 1430 1428 1427 1426 1425 1425 1425 1425 1425 1425 1427 1428 1430 1431 1433 1433 1434 1433 1433 1432 1431 1429 1428 1426 1425 1423
1483 1482 1483 1478 1446 1452 1450 1445 1441 1438 1436 1434 1434 1432 1431 1429 1428 1426 1425 1424 1422 1421 1421 1421 1420 1419 1420 1421 1422 1424 1426 1427 1428 1428 1428 1428 1428 1427 1426 1426 1425 1423 1422 1420
1483 1481 1479 1467 1441 1448 1438 1436 1434 1433 1430 1426 1425 1423 1422 1422 1420 1419 1419 1419 1417 1416 1414 1414 1413 1413 1413 1415 1417 1420 1421 1422 1422 1423 1422 1422 1422 1422 1421 1421 1420 1419 1418 1416
1476 1466 1470 1451 1433 1440 1429 1429 1428 1425 1423 1423 1422 1418 1415 1414 1413 1413 1411 1410 1409 1409 1408 1406 1405 1405 1407 1408 1409 1411 1414 1416 1417 1417 1418 1418 1418 1418 1417 1417 1416 1415 1413 1412